Weather History for Hobart, OK

Change the Weather History Date:

Monday, November 19, 2012

  Actual Average Record
Temperature  
Mean Temperature 61 °F -  
Max Temperature 72 °F 57 °F 79 °F (2007)
Min Temperature 50 °F 36 °F 27 °F (2000)
Degree Days  
Heating Degree Days 4    
Growing Degree Days 11 (Base 50)    
Moisture  
Dew Point 49 °F    
Average Humidity 72    
Maximum Humidity 92    
Minimum Humidity 48    
Precipitation  
Precipitation 0.00 in - - ()
Sea Level Pressure  
Sea Level Pressure 30.10 in    
Wind  
Wind Speed 11 mph (South)    
Max Wind Speed 16 mph    
Max Gust Speed -    
Visibility 10 miles    
Events      
Averages and records for this station are not official NWS values.
T = Trace of Precipitation, MM = Missing Value Source: NWS Daily Summary

Daily Weather History Graph

Daily Weather History Graph

Search for Another Location

Airport:

Trip Planner

Search our weather history database for the weather conditions in past years. The results will help you decide how hot, cold, wet, or windy it might be!

Date:

Astronomy

Nov. 19, 2012 Rise Set
Actual Time 7:15 AM CST 5:28 PM CST
Civil Twilight 6:47 AM CST 5:55 PM CST
Nautical Twilight 6:17 AM CST 6:26 PM CST
Astronomical Twilight 5:46 AM CST 6:56 PM CST
Moon 12:23 PM CST (11/19) 11:50 PM CST (11/19)
Length of Visible Light 11h 07m
Length of Day
10h 13m
Waxing Crescent, 41% of the Moon is Illuminated
Nov 19
Waxing Crescent
Nov 20
First Quarter
Nov 28
Full
Dec 6
Last Quarter
Dec 13
New

Hourly Weather History & Observations

Time (CST) Temp. Dew Point Humidity Pressure Visibility Wind Dir Wind Speed Gust Speed Precip Events Conditions
12:53 AM 55.9 °F 44.1 °F 64% 30.09 in 10.0 mi South 13.8 mph - N/A   Clear
1:53 AM 55.0 °F 46.0 °F 72% 30.09 in 10.0 mi South 13.8 mph - N/A   Mostly Cloudy
2:53 AM 55.0 °F 46.9 °F 74% 30.08 in 10.0 mi South 16.1 mph - N/A   Scattered Clouds
3:53 AM 55.9 °F 48.9 °F 77% 30.07 in 10.0 mi South 11.5 mph - N/A   Mostly Cloudy
4:53 AM 54.0 °F 48.0 °F 80% 30.07 in 10.0 mi SSW 11.5 mph - N/A   Clear
5:53 AM 53.1 °F 48.0 °F 83% 30.08 in 10.0 mi South 15.0 mph - N/A   Clear
6:53 AM 53.1 °F 48.9 °F 86% 30.09 in 10.0 mi South 15.0 mph - N/A   Clear
7:53 AM 53.1 °F 50.0 °F 89% 30.11 in 10.0 mi SSW 15.0 mph - N/A   Clear
8:53 AM 57.0 °F 52.0 °F 83% 30.12 in 10.0 mi SSW 12.7 mph - N/A   Clear
9:53 AM 61.0 °F 52.0 °F 72% 30.12 in 10.0 mi SSW 13.8 mph - N/A   Clear
10:53 AM 64.0 °F 52.0 °F 65% 30.11 in 10.0 mi SSW 11.5 mph - N/A   Clear
11:53 AM 66.0 °F 53.1 °F 63% 30.11 in 10.0 mi SW 9.2 mph - N/A   Clear
12:53 PM 68.0 °F 53.1 °F 59% 30.09 in 10.0 mi SSW 9.2 mph - N/A   Clear
1:53 PM 69.1 °F 52.0 °F 54% 30.07 in 10.0 mi SSW 5.8 mph - N/A   Clear
2:53 PM 71.1 °F 51.1 °F 49% 30.06 in 10.0 mi SW 8.1 mph - N/A   Clear
3:53 PM 72.0 °F 51.1 °F 48% 30.06 in 10.0 mi South 5.8 mph - N/A   Clear
4:53 PM 69.1 °F 50.0 °F 51% 30.07 in 10.0 mi SW 3.5 mph - N/A   Clear
5:53 PM 64.9 °F 48.9 °F 56% 30.09 in 10.0 mi Calm Calm - N/A   Clear
6:53 PM 60.1 °F 50.0 °F 69% 30.12 in 10.0 mi NNE 3.5 mph - N/A   Clear
7:53 PM 53.1 °F 46.0 °F 77% 30.14 in 10.0 mi ESE 4.6 mph - N/A   Clear
8:53 PM 54.0 °F 48.0 °F 80% 30.15 in 10.0 mi NE 6.9 mph - N/A   Clear
9:53 PM 53.1 °F 48.9 °F 86% 30.14 in 10.0 mi ENE 4.6 mph - N/A   Clear
10:53 PM 50.0 °F 46.9 °F 89% 30.13 in 9.0 mi ESE 5.8 mph - N/A   Clear
11:53 PM 51.1 °F 48.9 °F 92% 30.12 in 9.0 mi ESE 4.6 mph - N/A   Clear